EXS1TL EGGW-LEAL

Flight info

Callsign EXS1TL
Flight time N/A
Altitude 37000
Route RODN1C RODNI N27 ICTAM Q63 CPT N859 VAPID UN859 SOPIL BALAN LMG PIMQO AGN ANETO POSSY XIMPE RIMES N860 VLC VLC3L
Aircraft B738/M-V/N

Departure

Time N/A
Airport London Luton Airport (EGGW)

Arrival

Time 2026-05-01 12:53
Airport Alicante-Elche Miguel Hernández Airport (LEAL)
Time Latitude Longitude Altitude Speed Heading
2026-05-01 11:39 45.57185 1.08834 39166 ft 463 kts 173°
2026-05-01 11:40 45.45381 1.11850 39185 ft 463 kts 173°
2026-05-01 11:40 45.39072 1.13462 39196 ft 463 kts 173°
2026-05-01 11:41 45.32723 1.15067 39205 ft 463 kts 173°
2026-05-01 11:41 45.26372 1.16667 39211 ft 463 kts 173°
2026-05-01 11:42 45.20031 1.18226 39213 ft 462 kts 176°
2026-05-01 11:42 45.13661 1.18446 39222 ft 455 kts 189°
2026-05-01 11:43 45.07422 1.17161 39221 ft 452 kts 194°
2026-05-01 11:43 45.01224 1.15556 39218 ft 452 kts 194°
2026-05-01 11:44 44.91931 1.13178 39214 ft 452 kts 194°
2026-05-01 11:44 44.85786 1.11615 39214 ft 452 kts 194°
2026-05-01 11:45 44.79601 1.10035 39215 ft 452 kts 194°
2026-05-01 11:45 44.73406 1.08452 39223 ft 452 kts 194°
2026-05-01 11:46 44.67211 1.06880 39222 ft 452 kts 194°
2026-05-01 11:46 44.61024 1.05314 39212 ft 452 kts 194°
2026-05-01 11:47 44.54830 1.03751 39214 ft 452 kts 194°
2026-05-01 11:47 44.48648 1.02195 39217 ft 452 kts 194°
2026-05-01 11:48 44.42499 1.00653 39220 ft 452 kts 194°
2026-05-01 11:48 44.36269 0.99090 39224 ft 451 kts 194°
2026-05-01 11:49 44.30125 0.97553 39226 ft 451 kts 194°
2026-05-01 11:49 44.23944 0.96010 39228 ft 451 kts 194°
2026-05-01 11:50 44.17762 0.94462 39229 ft 451 kts 195°
2026-05-01 11:50 44.11571 0.92920 39234 ft 452 kts 194°
2026-05-01 11:51 44.05377 0.91388 39236 ft 452 kts 194°
2026-05-01 11:51 43.99169 0.89855 39238 ft 452 kts 195°
2026-05-01 11:52 43.93037 0.88344 39240 ft 450 kts 195°
2026-05-01 11:52 43.86868 0.86806 39243 ft 450 kts 196°
2026-05-01 11:53 43.80731 0.85150 39246 ft 450 kts 196°
2026-05-01 11:53 43.74581 0.83500 39249 ft 450 kts 196°
2026-05-01 11:54 43.68443 0.81862 39251 ft 450 kts 196°
2026-05-01 11:54 43.62332 0.80235 39254 ft 449 kts 196°
2026-05-01 11:55 43.56189 0.78605 39258 ft 449 kts 196°
2026-05-01 11:55 43.50047 0.76960 39257 ft 449 kts 196°
2026-05-01 11:56 43.43905 0.75325 39256 ft 449 kts 196°
2026-05-01 11:56 43.37763 0.73697 39257 ft 449 kts 196°
2026-05-01 11:57 43.31615 0.72073 39258 ft 449 kts 196°
2026-05-01 11:57 43.25471 0.70453 39259 ft 449 kts 196°
2026-05-01 11:58 43.19371 0.68849 39259 ft 449 kts 196°
2026-05-01 11:59 43.10172 0.66436 39260 ft 449 kts 196°
2026-05-01 11:59 43.04032 0.64829 39260 ft 448 kts 196°
2026-05-01 12:00 42.94844 0.62419 39257 ft 448 kts 196°
2026-05-01 12:01 42.85665 0.60034 39252 ft 448 kts 197°
2026-05-01 12:01 42.79546 0.58449 39248 ft 447 kts 197°
2026-05-01 12:02 42.73424 0.56866 39244 ft 447 kts 197°
2026-05-01 12:02 42.67560 0.54541 39240 ft 439 kts 207°
2026-05-01 12:03 42.62015 0.51164 39249 ft 436 kts 211°
2026-05-01 12:03 42.56527 0.47652 39254 ft 435 kts 211°
2026-05-01 12:04 42.51062 0.44169 39252 ft 434 kts 211°
2026-05-01 12:04 42.45579 0.40684 39249 ft 434 kts 211°
2026-05-01 12:05 42.40115 0.37216 39246 ft 434 kts 211°
2026-05-01 12:05 42.31928 0.31970 39238 ft 434 kts 211°
2026-05-01 12:06 42.26470 0.28507 39229 ft 433 kts 211°
2026-05-01 12:06 42.21034 0.25081 39228 ft 433 kts 211°
2026-05-01 12:07 42.15573 0.21648 39229 ft 433 kts 211°
2026-05-01 12:07 42.10109 0.18224 39230 ft 434 kts 210°
2026-05-01 12:08 42.04290 0.15704 39230 ft 444 kts 198°
2026-05-01 12:08 41.98136 0.14478 39231 ft 449 kts 193°
2026-05-01 12:09 41.91922 0.13563 39231 ft 449 kts 193°
2026-05-01 12:09 41.86755 0.12796 39231 ft 449 kts 193°
2026-05-01 12:10 41.76436 0.11260 39233 ft 449 kts 193°
2026-05-01 12:11 41.67121 0.09866 39234 ft 449 kts 193°
2026-05-01 12:11 41.60914 0.08940 39228 ft 449 kts 193°
2026-05-01 12:12 41.54705 0.08017 39228 ft 448 kts 193°
2026-05-01 12:12 41.48517 0.07100 39226 ft 448 kts 193°
2026-05-01 12:13 41.42356 0.06188 39226 ft 448 kts 193°
2026-05-01 12:13 41.36161 0.05267 39225 ft 448 kts 193°
2026-05-01 12:14 41.31011 0.04508 39225 ft 448 kts 193°
2026-05-01 12:14 41.23694 0.03434 39224 ft 447 kts 193°
2026-05-01 12:15 41.17543 0.02533 39223 ft 446 kts 193°
2026-05-01 12:15 41.11368 0.01630 39226 ft 446 kts 193°
2026-05-01 12:16 41.05185 0.00730 39231 ft 446 kts 193°
2026-05-01 12:16 40.99006 -0.00166 39231 ft 446 kts 193°
2026-05-01 12:17 40.92789 -0.01066 39232 ft 451 kts 193°
2026-05-01 12:17 40.86579 -0.01969 39231 ft 450 kts 193°
2026-05-01 12:18 40.80357 -0.02873 39240 ft 449 kts 193°
2026-05-01 12:18 40.74137 -0.03769 39242 ft 450 kts 193°
2026-05-01 12:19 40.68969 -0.04512 39243 ft 449 kts 193°
2026-05-01 12:19 40.62749 -0.05404 39243 ft 450 kts 193°
2026-05-01 12:20 40.55557 -0.06660 39232 ft 443 kts 199°
2026-05-01 12:20 40.50612 -0.08433 39225 ft 438 kts 204°
2026-05-01 12:21 40.44766 -0.10765 39222 ft 439 kts 203°
2026-05-01 12:21 40.38921 -0.13070 39226 ft 439 kts 203°
2026-05-01 12:22 40.35983 -0.14225 38942 ft 443 kts 203°
2026-05-01 12:22 40.33069 -0.15369 38511 ft 441 kts 203°
2026-05-01 12:22 40.30087 -0.16539 37853 ft 441 kts 203°
2026-05-01 12:22 40.27184 -0.17678 37227 ft 442 kts 203°
2026-05-01 12:23 40.24241 -0.18838 36586 ft 441 kts 204°
2026-05-01 12:23 40.21306 -0.20007 35999 ft 440 kts 204°
2026-05-01 12:23 40.18384 -0.21163 35512 ft 436 kts 204°
2026-05-01 12:23 40.15488 -0.22306 35035 ft 432 kts 204°
2026-05-01 12:24 40.12620 -0.23436 34564 ft 429 kts 204°
2026-05-01 12:24 40.09953 -0.24486 34127 ft 425 kts 204°
2026-05-01 12:24 40.07125 -0.25599 33666 ft 421 kts 204°
2026-05-01 12:24 40.04330 -0.26698 33212 ft 418 kts 204°
2026-05-01 12:25 40.01556 -0.27787 32763 ft 414 kts 204°
2026-05-01 12:25 39.96076 -0.29916 31892 ft 407 kts 203°
2026-05-01 12:25 39.93378 -0.30953 31467 ft 403 kts 204°
2026-05-01 12:26 39.90728 -0.31973 31048 ft 399 kts 204°
2026-05-01 12:26 39.85419 -0.34031 30213 ft 392 kts 204°
2026-05-01 12:26 39.82808 -0.35047 29806 ft 389 kts 204°
2026-05-01 12:27 39.80260 -0.36037 29400 ft 387 kts 204°
2026-05-01 12:27 39.75143 -0.38042 28576 ft 381 kts 203°
2026-05-01 12:28 39.70084 -0.40007 27759 ft 376 kts 203°
2026-05-01 12:28 39.67586 -0.40975 27352 ft 374 kts 203°
2026-05-01 12:28 39.62625 -0.42892 26543 ft 369 kts 202°
2026-05-01 12:29 39.60174 -0.43838 26141 ft 367 kts 202°
2026-05-01 12:29 39.57730 -0.44781 25740 ft 365 kts 202°
2026-05-01 12:29 39.52893 -0.46645 24942 ft 361 kts 202°
2026-05-01 12:30 39.48084 -0.48495 24145 ft 358 kts 201°
2026-05-01 12:30 39.45689 -0.49354 23764 ft 356 kts 201°
2026-05-01 12:30 39.43298 -0.50201 23378 ft 355 kts 201°
2026-05-01 12:31 39.40928 -0.51041 22992 ft 353 kts 200°
2026-05-01 12:31 39.38564 -0.51880 22604 ft 351 kts 200°
2026-05-01 12:31 39.36244 -0.52704 22222 ft 349 kts 201°
2026-05-01 12:31 39.33909 -0.53532 21836 ft 348 kts 200°
2026-05-01 12:32 39.31580 -0.54358 21452 ft 346 kts 200°
2026-05-01 12:32 39.26956 -0.55997 20692 ft 342 kts 200°
2026-05-01 12:32 39.24664 -0.56810 20315 ft 341 kts 200°
2026-05-01 12:33 39.22376 -0.57620 19938 ft 339 kts 200°
2026-05-01 12:33 39.20110 -0.58422 19565 ft 337 kts 200°
2026-05-01 12:33 39.17852 -0.59220 19192 ft 336 kts 200°
2026-05-01 12:33 39.15605 -0.60016 18821 ft 334 kts 200°
2026-05-01 12:34 39.13396 -0.60806 18455 ft 332 kts 200°
2026-05-01 12:34 39.11175 -0.61597 18089 ft 331 kts 200°
2026-05-01 12:34 39.08959 -0.62384 17722 ft 329 kts 200°
2026-05-01 12:34 39.06759 -0.63163 17357 ft 327 kts 200°
2026-05-01 12:35 39.04568 -0.63939 16994 ft 326 kts 200°
2026-05-01 12:35 39.02383 -0.64709 16629 ft 324 kts 200°
2026-05-01 12:35 39.00220 -0.65473 16269 ft 323 kts 200°
2026-05-01 12:35 38.98055 -0.66238 15904 ft 321 kts 200°
2026-05-01 12:36 38.95902 -0.66997 15541 ft 320 kts 199°
2026-05-01 12:36 38.93765 -0.67747 15186 ft 318 kts 199°
2026-05-01 12:36 38.91632 -0.68498 14829 ft 317 kts 199°
2026-05-01 12:36 38.89508 -0.69246 14477 ft 315 kts 199°
2026-05-01 12:37 38.87398 -0.69987 14123 ft 314 kts 199°
2026-05-01 12:37 38.85292 -0.70726 13770 ft 312 kts 199°
2026-05-01 12:37 38.83202 -0.71461 13418 ft 310 kts 199°
2026-05-01 12:37 38.81149 -0.72187 13072 ft 310 kts 199°
2026-05-01 12:38 38.79074 -0.72920 12720 ft 309 kts 199°
2026-05-01 12:38 38.77007 -0.73645 12369 ft 307 kts 198°
2026-05-01 12:38 38.74945 -0.74365 12020 ft 306 kts 198°
2026-05-01 12:38 38.72897 -0.75083 11670 ft 304 kts 198°
2026-05-01 12:39 38.70862 -0.75794 11321 ft 303 kts 198°
2026-05-01 12:39 38.68827 -0.76501 10972 ft 302 kts 198°
2026-05-01 12:39 38.67136 -0.77092 10680 ft 301 kts 197°
2026-05-01 12:39 38.65037 -0.77824 10397 ft 297 kts 197°
2026-05-01 12:40 38.63103 -0.78497 10315 ft 287 kts 197°
2026-05-01 12:40 38.61213 -0.79155 10215 ft 278 kts 197°
2026-05-01 12:40 38.59355 -0.79802 9927 ft 276 kts 197°
2026-05-01 12:40 38.57545 -0.80432 9783 ft 259 kts 197°
2026-05-01 12:41 38.55892 -0.81006 9647 ft 239 kts 197°
2026-05-01 12:41 38.54386 -0.81648 9528 ft 217 kts 209°
2026-05-01 12:41 38.53242 -0.82734 9386 ft 194 kts 225°
2026-05-01 12:41 38.52340 -0.83977 9225 ft 190 kts 231°
2026-05-01 12:42 38.51514 -0.85297 9023 ft 190 kts 233°
2026-05-01 12:42 38.50707 -0.86633 8813 ft 190 kts 230°
2026-05-01 12:42 38.49770 -0.87818 8606 ft 189 kts 224°
2026-05-01 12:42 38.48778 -0.88929 8393 ft 189 kts 221°
2026-05-01 12:43 38.47774 -0.90008 8178 ft 188 kts 221°
2026-05-01 12:43 38.46765 -0.91060 7962 ft 187 kts 217°
2026-05-01 12:43 38.45676 -0.91981 7754 ft 187 kts 213°
2026-05-01 12:43 38.44577 -0.92832 7543 ft 187 kts 212°
2026-05-01 12:44 38.43465 -0.93678 7329 ft 186 kts 212°
2026-05-01 12:44 38.42716 -0.94247 7182 ft 185 kts 212°
2026-05-01 12:44 38.40187 -0.95811 6720 ft 184 kts 204°
2026-05-01 12:45 38.37720 -0.96368 6282 ft 185 kts 175°
2026-05-01 12:45 38.36451 -0.96069 6066 ft 185 kts 169°
2026-05-01 12:45 38.35210 -0.95659 5860 ft 184 kts 166°
2026-05-01 12:46 38.34014 -0.95097 5719 ft 185 kts 149°
2026-05-01 12:46 38.33301 -0.93745 5406 ft 191 kts 104°
2026-05-01 12:46 38.33181 -0.92083 5213 ft 188 kts 95°
2026-05-01 12:46 38.33064 -0.90437 4993 ft 186 kts 98°
2026-05-01 12:47 38.32861 -0.88810 4781 ft 186 kts 101°
2026-05-01 12:47 38.32633 -0.87195 4575 ft 185 kts 101°
2026-05-01 12:47 38.32405 -0.85580 4372 ft 184 kts 101°
2026-05-01 12:47 38.32178 -0.83981 4174 ft 184 kts 101°
2026-05-01 12:48 38.31952 -0.82382 3975 ft 184 kts 101°
2026-05-01 12:48 38.31725 -0.80781 3771 ft 182 kts 101°
2026-05-01 12:48 38.31500 -0.79192 3577 ft 182 kts 101°
2026-05-01 12:48 38.31278 -0.77619 3380 ft 180 kts 101°
2026-05-01 12:49 38.31057 -0.76054 3217 ft 179 kts 101°
2026-05-01 12:49 38.30837 -0.74492 2978 ft 178 kts 101°
2026-05-01 12:49 38.30695 -0.73481 2816 ft 173 kts 101°
2026-05-01 12:49 38.30423 -0.71554 2525 ft 160 kts 101°
2026-05-01 12:50 38.30236 -0.70218 2338 ft 148 kts 100°
2026-05-01 12:50 38.30058 -0.68954 2100 ft 142 kts 100°
2026-05-01 12:50 38.29888 -0.67744 1919 ft 135 kts 100°
2026-05-01 12:50 38.29723 -0.66571 1735 ft 136 kts 99°
2026-05-01 12:51 38.29556 -0.65377 1548 ft 138 kts 99°
2026-05-01 12:51 38.29389 -0.64186 1354 ft 134 kts 99°
2026-05-01 12:51 38.29067 -0.61845 944 ft 137 kts 99°
2026-05-01 12:52 38.28889 -0.60653 666 ft 137 kts 99°
2026-05-01 12:52 38.28571 -0.58382 261 ft 129 kts 100°
2026-05-01 12:52 38.28415 -0.57275 126 ft 124 kts 99°
2026-05-01 12:53 38.28219 -0.55844 108 ft 34 kts 98°
2026-05-01 12:53 38.28238 -0.55564 108 ft 21 kts 72°
2026-05-01 12:53 38.28255 -0.55503 108 ft 6 kts 69°
2026-05-01 12:54 38.28269 -0.55455 108 ft 6 kts 69°
2026-05-01 12:54 38.28296 -0.55364 108 ft 5 kts 71°
2026-05-01 12:54 38.28311 -0.55310 108 ft 9 kts 69°
2026-05-01 12:55 38.28391 -0.55157 108 ft 10 kts 33°
2026-05-01 12:55 38.28438 -0.55201 108 ft 10 kts 279°
2026-05-01 12:55 38.28449 -0.55286 108 ft 10 kts 281°
2026-05-01 12:56 38.28458 -0.55344 108 ft 3 kts 280°
2026-05-01 12:56 38.28473 -0.55361 108 ft 3 kts 357°
2026-05-01 12:56 38.28501 -0.55358 108 ft 5 kts 11°
2026-05-01 12:56 38.28535 -0.55350 108 ft 5 kts 12°
2026-05-01 12:57 38.28543 -0.55348 108 ft 0 kts